Location: Albuquerque Trailhead
(34.7934°N, 106.3736°W)
Time: 01:48:25
(UTC+00:00)

Cosmos 2084 Rocket - Pass Details

Date: 20 June 2021
Orbit: 518 x 662 km, 62.8° (Epoch: 27 July)

Event Time Altitude Azimuth Distance (km) Brightness Sun altitude
Exits shadow 10:18:06 34° 223° (SW) 862 3.7 -16.2°
Maximum altitude 10:19:40 75° 301° (WNW) 540 3.2 -16.0°
Drops below altitude 10° 10:23:36 10° 28° (NNE) 1,762 7.1 -15.4°
Sets 10:25:49 0° 30° (NNE) 2,666 8.4 -15.1°
